Location: Asheville, NC
(35.6000°N, 82.5500°W)
Time: 09:34:59
(UTC-04:00)

Vanguard 1 Rocket - Pass Details

Date: 14 March 2018
Orbit: 653 x 4224 km, 34.3° (Epoch: 24 June)

Event Time Altitude Azimuth Distance (km) Brightness Sun altitude
Rises 20:02:15 0° 256° (WSW) 3,827 12.5 -6.0°
Reaches altitude 10° 20:04:21 10° 255° (WSW) 3,123 11.6 -6.4°
Maximum altitude 20:12:15 81° 170° (S) 1,825 8.9 -8.0°
Enters shadow 20:27:41 12° 86° (E) 5,768 10.8 -11.1°
